| time (UTC) | temp F | wind direction | speed MPH | gust MPH | rain 1hr in | rain 24hr in | rain mn in | humidity % | barometer mb |
| 20260905032159 | 71 | 238 | 1.0 | 1.0 | 0.00 | 0.00 | 0.00 | 71 | 1016.0 |
| 20260905031524 | 70 | 239 | 0.0 | 2.0 | 0.00 | 0.00 | 0.00 | 70 | 1015.8 |
| 20260905031134 | 71 | 221 | 0.0 | 2.0 | 0.00 | 0.00 | 0.00 | 71 | 1015.9 |
| 20260905030137 | 71 | 236 | 1.0 | 3.0 | 0.00 | 0.00 | 0.00 | 70 | 1016.1 |
| 20260905030032 | 71 | 248 | 1.0 | 3.0 | 0.00 | 0.00 | 0.00 | 69 | 1015.9 |
| 20260905025128 | 72 | 266 | 2.0 | 4.0 | 0.00 | 0.00 | 0.00 | 68 | 1016.2 |
| 20260905024518 | 71 | 245 | 3.0 | 4.0 | 0.00 | 0.00 | 0.00 | 68 | 1016.1 |
| 20260905024135 | 72 | 241 | 3.0 | 3.0 | 0.00 | 0.00 | 0.00 | 68 | 1016.2 |
| 20260905023134 | 72 | 271 | 2.0 | 4.0 | 0.00 | 0.00 | 0.00 | 67 | 1016.1 |
| 20260905023010 | 72 | 240 | 2.0 | 4.0 | 0.00 | 0.00 | 0.00 | 67 | 1016.0 |
| 20260905022137 | 73 | 246 | 2.0 | 3.0 | 0.00 | 0.00 | 0.00 | 66 | 1016.0 |
| 20260905021534 | 73 | 261 | 2.0 | 5.0 | 0.00 | 0.00 | 0.00 | 65 | 1015.9 |
| 20260905021130 | 73 | 266 | 3.0 | 5.0 | 0.00 | 0.00 | 0.00 | 66 | 1016.1 |
| 20260905020140 | 72 | 295 | 4.0 | 4.0 | 0.00 | 0.00 | 0.00 | 68 | 1016.1 |
| 20260905020036 | 72 | 291 | 4.0 | 4.0 | 0.00 | 0.00 | 0.00 | 67 | 1016.0 |
| 20260905015142 | 73 | 269 | 0.0 | 0.0 | 0.00 | 0.00 | 0.00 | 71 | 1016.1 |
| 20260905014505 | 71 | 268 | 0.0 | 0.0 | 0.00 | 0.00 | 0.00 | 70 | 1015.9 |
| 20260905014134 | 72 | 268 | 0.0 | 0.0 | 0.00 | 0.00 | 0.00 | 71 | 1016.0 |
| 20260905013133 | 72 | 221 | 0.0 | 0.0 | 0.00 | 0.00 | 0.00 | 72 | 1016.0 |
| 20260905013004 | 71 | 221 | 0.0 | 0.0 | 0.00 | 0.00 | 0.00 | 72 | 1016.0 |
| 20260905012136 | 71 | 224 | 0.0 | 0.0 | 0.00 | 0.00 | 0.00 | 75 | 1016.0 |
| 20260905011504 | 72 | 242 | 0.0 | 1.0 | 0.00 | 0.00 | 0.00 | 75 | 1015.9 |
| 20260905011138 | 72 | 240 | 0.0 | 1.0 | 0.00 | 0.00 | 0.00 | 72 | 1015.9 |
| 20260905010148 | 72 | 227 | 0.0 | 1.0 | 0.00 | 0.00 | 0.00 | 74 | 1015.8 |
| 20260905010019 | 72 | 227 | 0.0 | 1.0 | 0.00 | 0.00 | 0.00 | 73 | 1015.8 |
| 20260905005135 | 72 | 238 | 0.0 | 1.0 | 0.00 | 0.00 | 0.00 | 75 | 1015.8 |
| 20260905004515 | 72 | 238 | 0.0 | 1.0 | 0.00 | 0.00 | 0.00 | 75 | 1015.8 |
| 20260905004145 | 72 | 238 | 0.0 | 1.0 | 0.00 | 0.00 | 0.00 | 75 | 1015.8 |
| 20260905003131 | 71 | 213 | 0.0 | 1.0 | 0.00 | 0.00 | 0.00 | 78 | 1015.9 |
| 20260905003013 | 71 | 202 | 0.0 | 0.0 | 0.00 | 0.00 | 0.00 | 78 | 1015.9 |
| 20260905002148 | 71 | 226 | 0.0 | 0.0 | 0.00 | 0.00 | 0.00 | 82 | 1016.0 |
| 20260905001514 | 71 | 226 | 0.0 | 0.0 | 0.00 | 0.00 | 0.00 | 81 | 1016.1 |
| 20260905001136 | 71 | 212 | 0.0 | 0.0 | 0.00 | 0.00 | 0.00 | 82 | 1016.2 |
| 20260905000130 | 72 | 201 | 0.0 | 0.0 | 0.00 | 0.00 | 0.00 | 81 | 1016.3 |
| 20260905000004 | 72 | 201 | 0.0 | 0.0 | 0.00 | 0.00 | 0.00 | 81 | 1016.2 |
| 20260904235139 | 73 | 201 | 0.0 | 2.0 | 0.00 | 0.00 | 0.00 | 79 | 1016.3 |
| 20260904234507 | 73 | 229 | 0.0 | 3.0 | 0.00 | 0.00 | 0.00 | 78 | 1016.3 |
| 20260904234134 | 73 | 181 | 1.0 | 3.0 | 0.00 | 0.00 | 0.00 | 80 | 1016.4 |
| 20260904233137 | 73 | 167 | 0.0 | 1.0 | 0.00 | 0.00 | 0.00 | 83 | 1016.4 |
| 20260904233037 | 72 | 167 | 0.0 | 1.0 | 0.00 | 0.00 | 0.00 | 83 | 1016.3 |
| 20260904232140 | 73 | 169 | 0.0 | 0.0 | 0.00 | 0.00 | 0.00 | 85 | 1016.5 |
| 20260904231519 | 73 | 169 | 0.0 | 1.0 | 0.00 | 0.00 | 0.00 | 85 | 1016.4 |
| 20260904231142 | 73 | 169 | 0.0 | 1.0 | 0.00 | 0.00 | 0.00 | 85 | 1016.5 |
| 20260904230150 | 73 | 191 | 0.0 | 0.0 | 0.00 | 0.00 | 0.00 | 86 | 1016.6 |
| 20260904230014 | 73 | 190 | 0.0 | 0.0 | 0.00 | 0.00 | 0.00 | 86 | 1016.5 |
| 20260904225141 | 74 | 190 | 0.0 | 0.0 | 0.00 | 0.00 | 0.00 | 86 | 1016.6 |
| 20260904224508 | 73 | 190 | 0.0 | 0.0 | 0.00 | 0.00 | 0.00 | 86 | 1016.4 |
| 20260904224133 | 74 | 190 | 0.0 | 0.0 | 0.00 | 0.00 | 0.00 | 86 | 1016.6 |
| 20260904223205 | 75 | 190 | 0.0 | 1.0 | 0.00 | 0.00 | 0.00 | 85 | 1016.7 |
| 20260904223006 | 74 | 190 | 0.0 | 1.0 | 0.00 | 0.00 | 0.00 | 85 | 1016.6 |
| 20260904222127 | 75 | 167 | 0.0 | 1.0 | 0.00 | 0.00 | 0.00 | 85 | 1016.8 |
| 20260904221503 | 75 | 153 | 0.0 | 1.0 | 0.00 | 0.00 | 0.00 | 84 | 1016.7 |
| 20260904221138 | 76 | 141 | 0.0 | 1.0 | 0.00 | 0.00 | 0.00 | 84 | 1016.8 |
| 20260904220144 | 77 | 142 | 0.0 | 1.0 | 0.00 | 0.00 | 0.00 | 84 | 1016.8 |
| 20260904220023 | 76 | 142 | 0.0 | 2.0 | 0.00 | 0.00 | 0.00 | 84 | 1016.6 |
| 20260904214519 | 77 | 107 | 0.0 | 3.0 | 0.00 | 0.00 | 0.00 | 82 | 1016.7 |
| 20260904214132 | 78 | 107 | 0.0 | 3.0 | 0.00 | 0.00 | 0.00 | 83 | 1016.8 |
| 20260904213133 | 78 | 106 | 0.0 | 2.0 | 0.00 | 0.00 | 0.00 | 82 | 1016.8 |
| 20260904213024 | 77 | 86 | 0.0 | 2.0 | 0.00 | 0.00 | 0.00 | 81 | 1016.6 |
| 20260904212148 | 78 | 136 | 0.0 | 3.0 | 0.00 | 0.00 | 0.00 | 81 | 1016.7 |
| 20260904211511 | 78 | 156 | 1.0 | 3.0 | 0.00 | 0.00 | 0.00 | 80 | 1016.6 |
| 20260904211130 | 78 | 126 | 1.0 | 3.0 | 0.00 | 0.00 | 0.00 | 81 | 1016.8 |
| 20260904210131 | 78 | 131 | 1.0 | 2.0 | 0.00 | 0.00 | 0.00 | 80 | 1016.9 |
| 20260904210010 | 78 | 139 | 0.0 | 2.0 | 0.00 | 0.00 | 0.00 | 79 | 1016.8 |
| 20260904205131 | 79 | 137 | 1.0 | 4.0 | 0.00 | 0.00 | 0.00 | 79 | 1016.9 |
| 20260904204533 | 78 | 162 | 0.0 | 4.0 | 0.00 | 0.00 | 0.00 | 78 | 1016.8 |
| 20260904204134 | 79 | 155 | 0.0 | 3.0 | 0.00 | 0.00 | 0.00 | 79 | 1016.9 |
| 20260904203146 | 79 | 122 | 1.0 | 4.0 | 0.00 | 0.00 | 0.00 | 78 | 1017.0 |
| 20260904203027 | 79 | 172 | 1.0 | 4.0 | 0.00 | 0.00 | 0.00 | 78 | 1017.0 |
| 20260904202131 | 79 | 172 | 1.0 | 4.0 | 0.00 | 0.00 | 0.00 | 78 | 1017.0 |
| 20260904201527 | 78 | 113 | 0.0 | 3.0 | 0.00 | 0.00 | 0.00 | 77 | 1017.1 |
| 20260904201141 | 79 | 116 | 1.0 | 3.0 | 0.00 | 0.00 | 0.00 | 77 | 1017.1 |
| 20260904200127 | 79 | 118 | 0.0 | 4.0 | 0.00 | 0.00 | 0.00 | 76 | 1017.2 |
| 20260904200022 | 79 | 81 | 0.0 | 4.0 | 0.00 | 0.00 | 0.00 | 75 | 1017.1 |
| 20260904195130 | 80 | 134 | 0.0 | 5.0 | 0.00 | 0.00 | 0.00 | 75 | 1017.2 |
| 20260904194513 | 80 | 79 | 2.0 | 6.0 | 0.00 | 0.00 | 0.00 | 74 | 1017.1 |
| 20260904194127 | 80 | 96 | 4.0 | 6.0 | 0.00 | 0.00 | 0.00 | 74 | 1017.1 |
| 20260904193141 | 80 | 130 | 3.0 | 6.0 | 0.00 | 0.00 | 0.00 | 73 | 1017.2 |
| 20260904193027 | 79 | 105 | 3.0 | 6.0 | 0.00 | 0.00 | 0.00 | 73 | 1017.1 |
| 20260904192127 | 80 | 104 | 3.0 | 5.0 | 0.00 | 0.00 | 0.00 | 73 | 1017.2 |
| 20260904191531 | 79 | 108 | 3.0 | 5.0 | 0.00 | 0.00 | 0.00 | 72 | 1017.2 |
| 20260904190034 | 80 | 94 | 5.0 | 6.0 | 0.00 | 0.00 | 0.00 | 72 | 1017.0 |
| 20260904184527 | 80 | 98 | 2.0 | 5.0 | 0.00 | 0.00 | 0.00 | 70 | 1017.0 |
| 20260904183026 | 80 | 88 | 1.0 | 5.0 | 0.00 | 0.00 | 0.00 | 70 | 1017.1 |
| 20260904181528 | 80 | 103 | 2.0 | 5.0 | 0.00 | 0.00 | 0.00 | 70 | 1017.0 |
| 20260904180015 | 81 | 101 | 4.0 | 6.0 | 0.00 | 0.00 | 0.00 | 70 | 1016.7 |
| 20260904174508 | 81 | 94 | 5.0 | 8.0 | 0.00 | 0.00 | 0.00 | 69 | 1016.8 |
| 20260904173019 | 82 | 68 | 5.0 | 10.0 | 0.00 | 0.00 | 0.00 | 66 | 1017.0 |
| 20260904171509 | 83 | 115 | 6.0 | 11.0 | 0.00 | 0.00 | 0.00 | 65 | 1017.0 |
| 20260904170006 | 83 | 103 | 6.0 | 13.0 | 0.00 | 0.00 | 0.00 | 64 | 1017.2 |
| 20260904164503 | 84 | 108 | 8.0 | 13.0 | 0.00 | 0.00 | 0.00 | 65 | 1017.2 |
| 20260904163018 | 84 | 105 | 9.0 | 12.0 | 0.00 | 0.00 | 0.00 | 65 | 1017.2 |
| 20260904161515 | 84 | 83 | 11.0 | 16.0 | 0.00 | 0.00 | 0.00 | 64 | 1017.1 |
| 20260904160010 | 84 | 89 | 13.0 | 16.0 | 0.00 | 0.00 | 0.00 | 66 | 1017.2 |
| 20260904154508 | 85 | 98 | 10.0 | 15.0 | 0.00 | 0.00 | 0.00 | 64 | 1017.2 |
| 20260904153005 | 85 | 94 | 12.0 | 17.0 | 0.00 | 0.00 | 0.00 | 60 | 1017.3 |
| 20260904151506 | 85 | 91 | 9.0 | 15.0 | 0.00 | 0.00 | 0.00 | 60 | 1017.3 |
| 20260904150033 | 85 | 106 | 14.0 | 17.0 | 0.00 | 0.00 | 0.00 | 58 | 1017.5 |
| 20260904144519 | 85 | 91 | 13.0 | 19.0 | 0.00 | 0.00 | 0.00 | 58 | 1017.6 |
| 20260904143016 | 86 | 87 | 11.0 | 15.0 | 0.00 | 0.00 | 0.00 | 55 | 1017.7 |
| 20260904141512 | 86 | 90 | 11.0 | 16.0 | 0.00 | 0.00 | 0.00 | 48 | 1017.7 |
| 20260904140037 | 86 | 90 | 11.0 | 16.0 | 0.00 | 0.00 | 0.00 | 54 | 1017.8 |
| 20260904134504 | 87 | 85 | 11.0 | 14.0 | 0.00 | 0.00 | 0.00 | 51 | 1018.0 |
| 20260904133029 | 87 | 103 | 10.0 | 14.0 | 0.00 | 0.00 | 0.00 | 51 | 1018.0 |
| 20260904131525 | 87 | 86 | 11.0 | 16.0 | 0.00 | 0.00 | 0.00 | 48 | 1018.2 |
| 20260904130020 | 88 | 88 | 10.0 | 14.0 | 0.00 | 0.00 | 0.00 | 47 | 1018.1 |
| 20260904124512 | 87 | 105 | 11.0 | 15.0 | 0.00 | 0.00 | 0.00 | 45 | 1018.2 |
| 20260904123008 | 88 | 90 | 11.0 | 16.0 | 0.00 | 0.00 | 0.00 | 46 | 1018.4 |
| 20260904121534 | 88 | 86 | 12.0 | 15.0 | 0.00 | 0.00 | 0.00 | 47 | 1018.6 |
| 20260904120030 | 88 | 92 | 10.0 | 17.0 | 0.00 | 0.00 | 0.00 | 43 | 1018.7 |
| 20260904114526 | 88 | 115 | 11.0 | 16.0 | 0.00 | 0.00 | 0.00 | 45 | 1018.9 |
| 20260904113023 | 88 | 77 | 10.0 | 16.0 | 0.00 | 0.00 | 0.00 | 46 | 1019.0 |
| 20260904111519 | 88 | 90 | 10.0 | 13.0 | 0.00 | 0.00 | 0.00 | 48 | 1019.1 |
| 20260904110016 | 88 | 81 | 8.0 | 14.0 | 0.00 | 0.00 | 0.00 | 51 | 1019.1 |
| 20260904104534 | 88 | 86 | 8.0 | 12.0 | 0.00 | 0.00 | 0.00 | 50 | 1019.1 |
| 20260904103031 | 89 | 89 | 5.0 | 10.0 | 0.00 | 0.00 | 0.00 | 49 | 1019.3 |
| 20260904101530 | 90 | 110 | 4.0 | 5.0 | 0.00 | 0.00 | 0.00 | 44 | 1019.4 |
| 20260904100027 | 90 | 79 | 1.0 | 5.0 | 0.00 | 0.00 | 0.00 | 43 | 1019.5 |
| 20260904094507 | 88 | 78 | 2.0 | 7.0 | 0.00 | 0.00 | 0.00 | 46 | 1019.6 |
| 20260904093004 | 89 | 111 | 1.0 | 4.0 | 0.00 | 0.00 | 0.00 | 50 | 1019.7 |
| 20260904091516 | 88 | 179 | 0.0 | 5.0 | 0.00 | 0.00 | 0.00 | 50 | 1019.9 |
| 20260904090012 | 89 | 114 | 0.0 | 3.0 | 0.00 | 0.00 | 0.00 | 50 | 1019.7 |
| 20260904084506 | 87 | 293 | 0.0 | 3.0 | 0.00 | 0.00 | 0.00 | 53 | 1019.6 |
| 20260904083013 | 86 | 252 | 0.0 | 2.0 | 0.00 | 0.00 | 0.00 | 54 | 1019.8 |
| 20260904081505 | 85 | 210 | 2.0 | 3.0 | 0.00 | 0.00 | 0.00 | 55 | 1020.0 |
| 20260904080010 | 82 | 136 | 1.0 | 4.0 | 0.00 | 0.00 | 0.00 | 61 | 1019.9 |
| 20260904074509 | 81 | 164 | 1.0 | 4.0 | 0.00 | 0.00 | 0.00 | 63 | 1019.9 |
| 20260904073010 | 81 | 212 | 0.0 | 3.0 | 0.00 | 0.00 | 0.00 | 64 | 1019.8 |
| 20260904071506 | 79 | 155 | 1.0 | 2.0 | 0.00 | 0.00 | 0.00 | 67 | 1019.7 |
| 20260904070004 | 76 | 220 | 2.0 | 3.0 | 0.00 | 0.00 | 0.00 | 70 | 1019.6 |
| 20260904064512 | 74 | 242 | 0.0 | 2.0 | 0.00 | 0.00 | 0.00 | 72 | 1019.6 |
| 20260904063032 | 73 | 208 | 1.0 | 3.0 | 0.00 | 0.00 | 0.00 | 73 | 1019.6 |
| 20260904061514 | 73 | 245 | 2.0 | 3.0 | 0.00 | 0.00 | 0.00 | 74 | 1019.5 |
| 20260904060015 | 72 | 158 | 1.0 | 2.0 | 0.00 | 0.00 | 0.00 | 75 | 1019.4 |
| 20260904054512 | 71 | 146 | 0.0 | 0.0 | 0.00 | 0.00 | 0.00 | 77 | 1019.5 |
| 20260904053008 | 68 | 143 | 0.0 | 1.0 | 0.00 | 0.00 | 0.00 | 81 | 1019.3 |
| 20260904051518 | 66 | 91 | 0.0 | 2.0 | 0.00 | 0.00 | 0.00 | 81 | 1019.3 |
| 20260904050019 | 66 | 205 | 0.0 | 0.0 | 0.00 | 0.00 | 0.00 | 81 | 1019.2 |
| 20260904044520 | 67 | 205 | 0.0 | 0.0 | 0.00 | 0.00 | 0.00 | 81 | 1019.1 |
| 20260904043024 | 66 | 205 | 0.0 | 1.0 | 0.00 | 0.00 | 0.00 | 82 | 1019.2 |
| 20260904041524 | 67 | 205 | 0.0 | 0.0 | 0.00 | 0.00 | 0.00 | 81 | 1019.1 |
| 20260904040013 | 67 | 205 | 0.0 | 0.0 | 0.00 | 0.00 | 0.00 | 80 | 1018.8 |
| 20260904034527 | 67 | 205 | 0.0 | 0.0 | 0.00 | 0.00 | 0.00 | 80 | 1018.8 |
| 20260904033026 | 67 | 205 | 0.0 | 0.0 | 0.00 | 0.00 | 0.00 | 80 | 1018.7 |